Year,Month,Day,Hour,Minute,Value (Times are PST for temperature in C)
2022,09,26,00,00,13.50
2022,09,26,00,01,13.50
2022,09,26,00,02,13.40
2022,09,26,00,03,13.40
2022,09,26,00,04,13.40
2022,09,26,00,05,13.30
2022,09,26,00,06,13.30
2022,09,26,00,07,13.30
2022,09,26,00,08,13.30
2022,09,26,00,09,13.30
2022,09,26,00,10,13.30
2022,09,26,00,11,13.20
2022,09,26,00,12,13.20
2022,09,26,00,13,13.20
2022,09,26,00,14,13.20
2022,09,26,00,15,13.20
2022,09,26,00,16,13.20
2022,09,26,00,17,13.20
2022,09,26,00,18,13.20
2022,09,26,00,19,13.20
2022,09,26,00,20,13.20
2022,09,26,00,21,13.20
2022,09,26,00,22,13.20
2022,09,26,00,23,13.20
2022,09,26,00,24,13.20
2022,09,26,00,25,13.10
2022,09,26,00,26,13.10
2022,09,26,00,27,13.10
2022,09,26,00,28,13.10
2022,09,26,00,29,13.10
2022,09,26,00,30,13.10
2022,09,26,00,31,13.10
2022,09,26,00,32,13.10
2022,09,26,00,33,13.10
2022,09,26,00,34,13.10
2022,09,26,00,35,13.10
2022,09,26,00,36,13.10
2022,09,26,00,37,13.00
2022,09,26,00,38,13.00
2022,09,26,00,39,13.00
2022,09,26,00,40,13.00
2022,09,26,00,41,13.00
2022,09,26,00,42,13.00
2022,09,26,00,43,13.00
2022,09,26,00,44,13.00
2022,09,26,00,45,13.00
2022,09,26,00,46,13.00
2022,09,26,00,47,13.00
2022,09,26,00,48,13.00
2022,09,26,00,49,13.00
2022,09,26,00,50,13.00
2022,09,26,00,51,13.00
2022,09,26,00,52,13.00
2022,09,26,00,53,13.00
2022,09,26,00,54,13.00
2022,09,26,00,55,13.00
2022,09,26,00,56,13.00
2022,09,26,00,57,12.90
2022,09,26,00,58,12.90
2022,09,26,00,59,12.90
2022,09,26,01,00,12.90
2022,09,26,01,01,12.90
2022,09,26,01,02,12.90
2022,09,26,01,03,12.90
2022,09,26,01,04,12.80
2022,09,26,01,05,12.80
2022,09,26,01,06,12.80
2022,09,26,01,07,12.80
2022,09,26,01,08,12.80
2022,09,26,01,09,12.80
2022,09,26,01,10,12.80
2022,09,26,01,11,12.80
2022,09,26,01,12,12.80
2022,09,26,01,13,12.80
2022,09,26,01,14,12.80
2022,09,26,01,15,12.80
2022,09,26,01,16,12.80
2022,09,26,01,17,12.80
2022,09,26,01,18,12.80
2022,09,26,01,19,12.80
2022,09,26,01,20,12.80
2022,09,26,01,21,12.80
2022,09,26,01,22,12.80
2022,09,26,01,23,12.80
2022,09,26,01,24,12.80
2022,09,26,01,25,12.80
2022,09,26,01,26,12.80
2022,09,26,01,27,12.70
2022,09,26,01,28,12.70
2022,09,26,01,29,12.70
2022,09,26,01,30,12.70
2022,09,26,01,31,12.70
2022,09,26,01,32,12.70
2022,09,26,01,33,12.70
2022,09,26,01,34,12.60
2022,09,26,01,35,12.60
2022,09,26,01,36,12.60
2022,09,26,01,37,12.60
2022,09,26,01,38,12.60
2022,09,26,01,39,12.60
2022,09,26,01,40,12.60
2022,09,26,01,41,12.60
2022,09,26,01,42,12.60
2022,09,26,01,43,12.60
2022,09,26,01,44,12.60
2022,09,26,01,45,12.60
2022,09,26,01,46,12.60
2022,09,26,01,47,12.50
2022,09,26,01,48,12.50
2022,09,26,01,49,12.50
2022,09,26,01,50,12.50
2022,09,26,01,51,12.50
2022,09,26,01,52,12.50
2022,09,26,01,53,12.50
2022,09,26,01,54,12.50
2022,09,26,01,55,12.50
2022,09,26,01,56,12.50
2022,09,26,01,57,12.50
2022,09,26,01,58,12.40
2022,09,26,01,59,12.40
2022,09,26,02,00,12.40
2022,09,26,02,01,12.40
2022,09,26,02,02,12.40
2022,09,26,02,03,12.40
2022,09,26,02,04,12.30
2022,09,26,02,05,12.30
2022,09,26,02,06,12.30
2022,09,26,02,07,12.30
2022,09,26,02,08,12.30
2022,09,26,02,09,12.20
2022,09,26,02,10,12.20
2022,09,26,02,11,12.20
2022,09,26,02,12,12.20
2022,09,26,02,13,12.20
2022,09,26,02,14,12.20
2022,09,26,02,15,12.10
2022,09,26,02,16,12.10
2022,09,26,02,17,12.10
2022,09,26,02,18,12.10
2022,09,26,02,19,12.10
2022,09,26,02,20,12.00
2022,09,26,02,21,12.00
2022,09,26,02,22,12.00
2022,09,26,02,23,12.00
2022,09,26,02,24,12.00
2022,09,26,02,25,11.90
2022,09,26,02,26,11.90
2022,09,26,02,27,11.90
2022,09,26,02,28,11.90
2022,09,26,02,29,11.90
2022,09,26,02,30,11.80
2022,09,26,02,31,11.80
2022,09,26,02,32,11.80
2022,09,26,02,33,11.80
2022,09,26,02,34,11.80
2022,09,26,02,35,11.80
2022,09,26,02,36,11.80
2022,09,26,02,37,11.70
2022,09,26,02,38,11.70
2022,09,26,02,39,11.70
2022,09,26,02,40,11.70
2022,09,26,02,41,11.70
2022,09,26,02,42,11.70
2022,09,26,02,43,11.70
2022,09,26,02,44,11.70
2022,09,26,02,45,11.70
2022,09,26,02,46,11.70
2022,09,26,02,47,11.70
2022,09,26,02,48,11.70
2022,09,26,02,49,11.70
2022,09,26,02,50,11.70
2022,09,26,02,51,11.70
2022,09,26,02,52,11.70
2022,09,26,02,53,11.70
2022,09,26,02,54,11.70
2022,09,26,02,55,11.80
2022,09,26,02,56,11.80
2022,09,26,02,57,11.80
2022,09,26,02,58,11.80
2022,09,26,02,59,11.80
2022,09,26,03,00,11.80
2022,09,26,03,01,11.80
2022,09,26,03,02,11.70
2022,09,26,03,03,11.70
2022,09,26,03,04,11.70
2022,09,26,03,05,11.70
2022,09,26,03,06,11.70
2022,09,26,03,07,11.70
2022,09,26,03,08,11.70
2022,09,26,03,09,11.70
2022,09,26,03,10,11.70
2022,09,26,03,11,11.70
2022,09,26,03,12,11.70
2022,09,26,03,13,11.70
2022,09,26,03,14,11.70
2022,09,26,03,15,11.70
2022,09,26,03,16,11.60
2022,09,26,03,17,11.60
2022,09,26,03,18,11.60
2022,09,26,03,19,11.60
2022,09,26,03,20,11.60
2022,09,26,03,21,11.50
2022,09,26,03,22,11.50
2022,09,26,03,23,11.50
2022,09,26,03,24,11.50
2022,09,26,03,25,11.50
2022,09,26,03,26,11.50
2022,09,26,03,27,11.50
2022,09,26,03,28,11.50
2022,09,26,03,29,11.50
2022,09,26,03,30,11.50
2022,09,26,03,31,11.50
2022,09,26,03,32,11.50
2022,09,26,03,33,11.50
2022,09,26,03,34,11.50
2022,09,26,03,35,11.50
2022,09,26,03,36,11.60
2022,09,26,03,37,11.60
2022,09,26,03,38,11.60
2022,09,26,03,39,11.60
2022,09,26,03,40,11.60
2022,09,26,03,41,11.60
2022,09,26,03,42,11.60
2022,09,26,03,43,11.60
2022,09,26,03,44,11.50
2022,09,26,03,45,11.50
2022,09,26,03,46,11.50
2022,09,26,03,47,11.50
2022,09,26,03,48,11.40
2022,09,26,03,49,11.50
2022,09,26,03,50,11.50
2022,09,26,03,51,11.50
2022,09,26,03,52,11.50
2022,09,26,03,53,11.60
2022,09,26,03,54,11.50
2022,09,26,03,55,11.50
2022,09,26,03,56,11.50
2022,09,26,03,57,11.50
2022,09,26,03,58,11.50
2022,09,26,03,59,11.40
2022,09,26,04,00,11.40
2022,09,26,04,01,11.40
2022,09,26,04,02,11.40
2022,09,26,04,03,11.40
2022,09,26,04,04,11.40
2022,09,26,04,05,11.40
2022,09,26,04,06,11.40
2022,09,26,04,07,11.40
2022,09,26,04,08,11.30
2022,09,26,04,09,11.30
2022,09,26,04,10,11.30
2022,09,26,04,11,11.30
2022,09,26,04,12,11.30
2022,09,26,04,13,11.30
2022,09,26,04,14,11.30
2022,09,26,04,15,11.30
2022,09,26,04,16,11.30
2022,09,26,04,17,11.30
2022,09,26,04,18,11.30
2022,09,26,04,19,11.30
2022,09,26,04,20,11.30
2022,09,26,04,21,11.30
2022,09,26,04,22,11.30
2022,09,26,04,23,11.40
2022,09,26,04,24,11.40
2022,09,26,04,25,11.30
2022,09,26,04,26,11.30
2022,09,26,04,27,11.30
2022,09,26,04,28,11.30
2022,09,26,04,29,11.30
2022,09,26,04,30,11.30
2022,09,26,04,31,11.30
2022,09,26,04,32,11.30
2022,09,26,04,33,11.30
2022,09,26,04,34,11.30
2022,09,26,04,35,11.30
2022,09,26,04,36,11.30
2022,09,26,04,37,11.30
2022,09,26,04,38,11.30
2022,09,26,04,39,11.30
2022,09,26,04,40,11.30
2022,09,26,04,41,11.20
2022,09,26,04,42,11.20
2022,09,26,04,43,11.20
2022,09,26,04,44,11.20
2022,09,26,04,45,11.20
2022,09,26,04,46,11.20
2022,09,26,04,47,11.20
2022,09,26,04,48,11.20
2022,09,26,04,49,11.20
2022,09,26,04,50,11.20
2022,09,26,04,51,11.20
2022,09,26,04,52,11.20
2022,09,26,04,53,11.20
2022,09,26,04,54,11.30
2022,09,26,04,55,11.30
2022,09,26,04,56,11.30
2022,09,26,04,57,11.30
2022,09,26,04,58,11.30
2022,09,26,04,59,11.30
2022,09,26,05,00,11.20
2022,09,26,05,01,11.20
2022,09,26,05,02,11.20
2022,09,26,05,03,11.20
2022,09,26,05,04,11.20
2022,09,26,05,05,11.20
2022,09,26,05,06,11.20
2022,09,26,05,07,11.10
2022,09,26,05,08,11.10
2022,09,26,05,09,11.10
2022,09,26,05,10,11.10
2022,09,26,05,11,11.10
2022,09,26,05,12,11.10
2022,09,26,05,13,11.10
2022,09,26,05,14,11.10
2022,09,26,05,15,11.10
2022,09,26,05,16,11.10
2022,09,26,05,17,11.10
2022,09,26,05,18,11.10
2022,09,26,05,19,11.10
2022,09,26,05,20,11.10
2022,09,26,05,21,11.10
2022,09,26,05,22,11.10
2022,09,26,05,23,11.10
2022,09,26,05,24,11.10
2022,09,26,05,25,11.10
2022,09,26,05,26,11.10
2022,09,26,05,27,11.10
2022,09,26,05,28,11.10
2022,09,26,05,29,11.10
2022,09,26,05,30,11.10
2022,09,26,05,31,11.10
2022,09,26,05,32,11.10
2022,09,26,05,33,11.00
2022,09,26,05,34,11.00
2022,09,26,05,35,11.00
2022,09,26,05,36,10.90
2022,09,26,05,37,10.90
2022,09,26,05,38,10.90
2022,09,26,05,39,10.90
2022,09,26,05,40,10.90
2022,09,26,05,41,10.90
2022,09,26,05,42,10.90
2022,09,26,05,43,10.90
2022,09,26,05,44,10.90
2022,09,26,05,45,10.90
2022,09,26,05,46,10.90
2022,09,26,05,47,10.90
2022,09,26,05,48,10.90
2022,09,26,05,49,10.90
2022,09,26,05,50,10.90
2022,09,26,05,51,10.90
2022,09,26,05,52,10.90
2022,09,26,05,53,10.90
2022,09,26,05,54,10.90
2022,09,26,05,55,10.90
2022,09,26,05,56,10.90
2022,09,26,05,57,10.90
2022,09,26,05,58,10.90
2022,09,26,05,59,10.80
2022,09,26,06,00,10.80
2022,09,26,06,01,10.80
2022,09,26,06,02,10.80
2022,09,26,06,03,10.80
2022,09,26,06,04,10.80
2022,09,26,06,05,10.80
2022,09,26,06,06,10.90
2022,09,26,06,07,10.90
2022,09,26,06,08,10.90
2022,09,26,06,09,10.90
2022,09,26,06,10,10.90
2022,09,26,06,11,10.90
2022,09,26,06,12,10.90
2022,09,26,06,13,10.90
2022,09,26,06,14,10.90
2022,09,26,06,15,10.90
2022,09,26,06,16,10.90
2022,09,26,06,17,10.90
2022,09,26,06,18,10.90
2022,09,26,06,19,10.90
2022,09,26,06,20,11.00
2022,09,26,06,21,11.00
2022,09,26,06,22,11.00
2022,09,26,06,23,11.10
2022,09,26,06,24,11.10
2022,09,26,06,25,11.10
2022,09,26,06,26,11.10
2022,09,26,06,27,11.10
2022,09,26,06,28,11.10
2022,09,26,06,29,11.10
2022,09,26,06,30,11.10
2022,09,26,06,31,11.10
2022,09,26,06,32,11.10
2022,09,26,06,33,11.10
2022,09,26,06,34,11.00
2022,09,26,06,35,11.00
2022,09,26,06,36,11.00
2022,09,26,06,37,10.90
2022,09,26,06,38,10.90
2022,09,26,06,39,10.90
2022,09,26,06,40,10.90
2022,09,26,06,41,10.90
2022,09,26,06,42,10.90
2022,09,26,06,43,10.90
2022,09,26,06,44,10.90
2022,09,26,06,45,10.90
2022,09,26,06,46,10.90
2022,09,26,06,47,10.90
2022,09,26,06,48,10.90
2022,09,26,06,49,10.90
2022,09,26,06,50,10.90
2022,09,26,06,51,10.90
2022,09,26,06,52,10.90
2022,09,26,06,53,10.90
2022,09,26,06,54,10.90
2022,09,26,06,55,10.90
2022,09,26,06,56,11.00
2022,09,26,06,57,11.00
2022,09,26,06,58,11.10
2022,09,26,06,59,11.10
2022,09,26,07,00,11.10
2022,09,26,07,01,11.10
2022,09,26,07,02,11.10
2022,09,26,07,03,11.10
2022,09,26,07,04,11.10
2022,09,26,07,05,11.10
2022,09,26,07,06,11.20
2022,09,26,07,07,11.20
2022,09,26,07,08,11.20
2022,09,26,07,09,11.20
2022,09,26,07,10,11.20
2022,09,26,07,11,11.20
2022,09,26,07,12,11.20
2022,09,26,07,13,11.20
2022,09,26,07,14,11.20
2022,09,26,07,15,11.20
2022,09,26,07,16,11.20
2022,09,26,07,17,11.20
2022,09,26,07,18,11.20
2022,09,26,07,19,11.20
2022,09,26,07,20,11.20
2022,09,26,07,21,11.30
2022,09,26,07,22,11.30
2022,09,26,07,23,11.30
2022,09,26,07,24,11.30
2022,09,26,07,25,11.30
2022,09,26,07,26,11.30
2022,09,26,07,27,11.30
2022,09,26,07,28,11.30
2022,09,26,07,29,11.30
2022,09,26,07,30,11.30
2022,09,26,07,31,11.30
2022,09,26,07,32,11.30
2022,09,26,07,33,11.30
2022,09,26,07,34,11.30
2022,09,26,07,35,11.40
2022,09,26,07,36,11.40
2022,09,26,07,37,11.40
2022,09,26,07,38,11.40
2022,09,26,07,39,11.40
2022,09,26,07,40,11.50
2022,09,26,07,41,11.50
2022,09,26,07,42,11.50
2022,09,26,07,43,11.50
2022,09,26,07,44,11.60
2022,09,26,07,45,11.60
2022,09,26,07,46,11.60
2022,09,26,07,47,11.60
2022,09,26,07,48,11.70
2022,09,26,07,49,11.60
2022,09,26,07,50,11.70
2022,09,26,07,51,11.70
2022,09,26,07,52,11.70
2022,09,26,07,53,11.70
2022,09,26,07,54,11.70
2022,09,26,07,55,11.70
2022,09,26,07,56,11.70
2022,09,26,07,57,11.70
2022,09,26,07,58,11.70
2022,09,26,07,59,11.70
2022,09,26,08,00,11.70
2022,09,26,08,01,11.70
2022,09,26,08,02,11.70
2022,09,26,08,03,11.70
2022,09,26,08,04,11.70
2022,09,26,08,05,11.70
2022,09,26,08,06,11.70
2022,09,26,08,07,11.70
2022,09,26,08,08,11.70
2022,09,26,08,09,11.70
2022,09,26,08,10,11.70
2022,09,26,08,11,11.80
2022,09,26,08,12,11.80
2022,09,26,08,13,11.80
2022,09,26,08,14,11.80
2022,09,26,08,15,11.80
2022,09,26,08,16,11.80
2022,09,26,08,17,11.80
2022,09,26,08,18,11.80
2022,09,26,08,19,11.90
2022,09,26,08,20,11.90
2022,09,26,08,21,11.90
2022,09,26,08,22,11.90
2022,09,26,08,23,12.00
2022,09,26,08,24,12.00
2022,09,26,08,25,12.10
2022,09,26,08,26,12.10
2022,09,26,08,27,12.20
2022,09,26,08,28,12.20
2022,09,26,08,29,12.20
2022,09,26,08,30,12.30
2022,09,26,08,31,12.30
2022,09,26,08,32,12.40
2022,09,26,08,33,12.50
2022,09,26,08,34,12.60
2022,09,26,08,35,12.70
2022,09,26,08,36,12.70
2022,09,26,08,37,12.80
2022,09,26,08,38,12.90
2022,09,26,08,39,12.90
2022,09,26,08,40,13.00
2022,09,26,08,41,13.10
2022,09,26,08,42,13.20
2022,09,26,08,43,13.20
2022,09,26,08,44,13.30
2022,09,26,08,45,13.30
2022,09,26,08,46,13.30
2022,09,26,08,47,13.40
2022,09,26,08,48,13.40
2022,09,26,08,49,13.50
2022,09,26,08,50,13.60
2022,09,26,08,51,13.60
2022,09,26,08,52,13.70
2022,09,26,08,53,13.70
2022,09,26,08,54,13.80
2022,09,26,08,55,13.90
2022,09,26,08,56,14.00
2022,09,26,08,57,14.10
2022,09,26,08,58,14.20
2022,09,26,08,59,14.20
2022,09,26,09,00,14.30
2022,09,26,09,01,14.40
2022,09,26,09,02,14.50
2022,09,26,09,03,14.60
2022,09,26,09,04,14.70
2022,09,26,09,05,14.80
2022,09,26,09,06,14.80
2022,09,26,09,07,14.90
2022,09,26,09,08,15.00
2022,09,26,09,09,15.10
2022,09,26,09,10,15.20
2022,09,26,09,11,15.30
2022,09,26,09,12,15.40
2022,09,26,09,13,15.50
2022,09,26,09,14,15.60
2022,09,26,09,15,15.70
2022,09,26,09,16,15.70
2022,09,26,09,17,15.80
2022,09,26,09,18,15.90
2022,09,26,09,19,15.90
2022,09,26,09,20,16.00
2022,09,26,09,21,16.10
2022,09,26,09,22,16.20
2022,09,26,09,23,16.20
2022,09,26,09,24,16.30
2022,09,26,09,25,16.30
2022,09,26,09,26,16.30
2022,09,26,09,27,16.30
2022,09,26,09,28,16.30
2022,09,26,09,29,16.40
2022,09,26,09,30,16.50
2022,09,26,09,31,16.50
2022,09,26,09,32,16.60
2022,09,26,09,33,16.70
2022,09,26,09,34,16.70
2022,09,26,09,35,16.80
2022,09,26,09,36,16.90
2022,09,26,09,37,16.90
2022,09,26,09,38,17.00
2022,09,26,09,39,17.10
2022,09,26,09,40,17.20
2022,09,26,09,41,17.30
2022,09,26,09,42,17.30
2022,09,26,09,43,17.40
2022,09,26,09,44,17.50
2022,09,26,09,45,17.50
2022,09,26,09,46,17.60
2022,09,26,09,47,17.60
2022,09,26,09,48,17.70
2022,09,26,09,49,17.80
2022,09,26,09,50,17.90
2022,09,26,09,51,17.90
2022,09,26,09,52,18.00
2022,09,26,09,53,18.10
2022,09,26,09,54,18.10
2022,09,26,09,55,18.20
2022,09,26,09,56,18.30
2022,09,26,09,57,18.40
2022,09,26,09,58,18.40
2022,09,26,09,59,18.50
2022,09,26,10,00,18.60
2022,09,26,10,01,18.70
2022,09,26,10,02,18.80
2022,09,26,10,03,18.90
2022,09,26,10,04,18.90
2022,09,26,10,05,19.00
2022,09,26,10,06,19.10
2022,09,26,10,07,19.20
2022,09,26,10,08,19.30
2022,09,26,10,09,19.40
2022,09,26,10,10,19.50
2022,09,26,10,11,19.60
2022,09,26,10,12,19.80
2022,09,26,10,13,19.90
2022,09,26,10,14,20.00
2022,09,26,10,15,20.10
2022,09,26,10,16,20.10
2022,09,26,10,17,20.20
2022,09,26,10,18,20.20
2022,09,26,10,19,20.30
2022,09,26,10,20,20.30
2022,09,26,10,21,20.40
2022,09,26,10,22,20.50
2022,09,26,10,23,20.50
2022,09,26,10,24,20.60
2022,09,26,10,25,20.60
2022,09,26,10,26,20.60
2022,09,26,10,27,20.60
2022,09,26,10,28,20.60
2022,09,26,10,29,20.60
2022,09,26,10,30,20.60
2022,09,26,10,31,20.60
2022,09,26,10,32,20.60
2022,09,26,10,33,20.50
2022,09,26,10,34,20.50
2022,09,26,10,35,20.40
2022,09,26,10,36,20.30
2022,09,26,10,37,20.20
2022,09,26,10,38,20.10
2022,09,26,10,39,20.00
2022,09,26,10,40,20.00
2022,09,26,10,41,19.90
2022,09,26,10,42,19.90
2022,09,26,10,43,20.00
2022,09,26,10,44,20.10
2022,09,26,10,45,20.10
2022,09,26,10,46,20.20
2022,09,26,10,47,20.30
2022,09,26,10,48,20.30
2022,09,26,10,49,20.50
2022,09,26,10,50,20.60
2022,09,26,10,51,20.60
2022,09,26,10,52,20.70
2022,09,26,10,53,20.80
2022,09,26,10,54,20.90
2022,09,26,10,55,21.00
2022,09,26,10,56,21.10
2022,09,26,10,57,21.20
2022,09,26,10,58,21.30
2022,09,26,10,59,21.40
2022,09,26,11,00,21.50
2022,09,26,11,01,21.60
2022,09,26,11,02,21.70
2022,09,26,11,03,21.80
2022,09,26,11,04,21.90
2022,09,26,11,05,21.90
2022,09,26,11,06,21.90
2022,09,26,11,07,21.90
2022,09,26,11,08,21.90
2022,09,26,11,09,21.90
2022,09,26,11,10,21.90
2022,09,26,11,11,21.90
2022,09,26,11,12,22.00
2022,09,26,11,13,22.00
2022,09,26,11,14,22.00
2022,09,26,11,15,22.00
2022,09,26,11,16,22.00
2022,09,26,11,17,22.10
2022,09,26,11,18,22.10
2022,09,26,11,19,22.10
2022,09,26,11,20,22.10
2022,09,26,11,21,22.10
2022,09,26,11,22,22.10
2022,09,26,11,23,22.10
2022,09,26,11,24,22.00
2022,09,26,11,25,21.90
2022,09,26,11,26,21.90
2022,09,26,11,27,21.80
2022,09,26,11,28,21.80
2022,09,26,11,29,21.80
2022,09,26,11,30,21.70
2022,09,26,11,31,21.70
2022,09,26,11,32,21.70
2022,09,26,11,33,21.70
2022,09,26,11,34,21.70
2022,09,26,11,35,21.70
2022,09,26,11,36,21.70
2022,09,26,11,37,21.60
2022,09,26,11,38,21.60
2022,09,26,11,39,21.70
2022,09,26,11,40,21.70
2022,09,26,11,41,21.70
2022,09,26,11,42,21.70
2022,09,26,11,43,21.70
2022,09,26,11,44,21.70
2022,09,26,11,45,21.80
2022,09,26,11,46,21.80
2022,09,26,11,47,21.80
2022,09,26,11,48,21.80
2022,09,26,11,49,21.80
2022,09,26,11,50,21.80
2022,09,26,11,51,21.90
2022,09,26,11,52,22.00
2022,09,26,11,53,22.00
2022,09,26,11,54,22.10
2022,09,26,11,55,22.20
2022,09,26,11,56,22.20
2022,09,26,11,57,22.20
2022,09,26,11,58,22.20
2022,09,26,11,59,22.20
2022,09,26,12,00,22.20
2022,09,26,12,01,22.20
2022,09,26,12,02,22.20
2022,09,26,12,03,22.20
2022,09,26,12,04,22.30
2022,09,26,12,05,22.30
2022,09,26,12,06,22.40
2022,09,26,12,07,22.40
2022,09,26,12,08,22.40
2022,09,26,12,09,22.40
2022,09,26,12,10,22.50
2022,09,26,12,11,22.60
2022,09,26,12,12,22.60
2022,09,26,12,13,22.60
2022,09,26,12,14,22.70
2022,09,26,12,15,22.80
2022,09,26,12,16,22.80
2022,09,26,12,17,22.80
2022,09,26,12,18,22.90
2022,09,26,12,19,23.00
2022,09,26,12,20,23.10
2022,09,26,12,21,23.20
2022,09,26,12,22,23.20
2022,09,26,12,23,23.30
2022,09,26,12,24,23.30
2022,09,26,12,25,23.20
2022,09,26,12,26,23.10
2022,09,26,12,27,22.80
2022,09,26,12,28,22.50
2022,09,26,12,29,22.40
2022,09,26,12,30,22.10
2022,09,26,12,31,22.00
2022,09,26,12,32,21.80
2022,09,26,12,33,21.60
2022,09,26,12,34,21.40
2022,09,26,12,35,21.30
2022,09,26,12,36,21.20
2022,09,26,12,37,21.00
2022,09,26,12,38,20.90
2022,09,26,12,39,20.80
2022,09,26,12,40,20.70
2022,09,26,12,41,20.70
2022,09,26,12,42,20.70
2022,09,26,12,43,20.70
2022,09,26,12,44,20.70
2022,09,26,12,45,20.70
2022,09,26,12,46,20.70
2022,09,26,12,47,20.60
2022,09,26,12,48,20.50
2022,09,26,12,49,20.40
2022,09,26,12,50,20.40
2022,09,26,12,51,20.30
2022,09,26,12,52,20.30
2022,09,26,12,53,20.20
2022,09,26,12,54,20.20
2022,09,26,12,55,20.30
2022,09,26,12,56,20.30
2022,09,26,12,57,20.40
2022,09,26,12,58,20.50
2022,09,26,12,59,20.60
2022,09,26,13,00,20.60
2022,09,26,13,01,20.70
2022,09,26,13,02,20.70
2022,09,26,13,03,20.80
2022,09,26,13,04,20.80
2022,09,26,13,05,20.70
2022,09,26,13,06,20.70
2022,09,26,13,07,20.60
2022,09,26,13,08,20.60
2022,09,26,13,09,20.50
2022,09,26,13,10,20.50
2022,09,26,13,11,20.50
2022,09,26,13,12,20.50
2022,09,26,13,13,20.50
2022,09,26,13,14,20.40
2022,09,26,13,15,20.30
2022,09,26,13,16,20.30
2022,09,26,13,17,20.20
2022,09,26,13,18,20.00
2022,09,26,13,19,19.90
2022,09,26,13,20,19.80
2022,09,26,13,21,19.80
2022,09,26,13,22,19.70
2022,09,26,13,23,19.70
2022,09,26,13,24,19.60
2022,09,26,13,25,19.60
2022,09,26,13,26,19.60
2022,09,26,13,27,19.50
2022,09,26,13,28,19.50
2022,09,26,13,29,19.40
2022,09,26,13,30,19.30
2022,09,26,13,31,19.30
2022,09,26,13,32,19.30
2022,09,26,13,33,19.30
2022,09,26,13,34,19.30
2022,09,26,13,35,19.30
2022,09,26,13,36,19.30
2022,09,26,13,37,19.30
2022,09,26,13,38,19.30
2022,09,26,13,39,19.40
2022,09,26,13,40,19.50
2022,09,26,13,41,19.50
2022,09,26,13,42,19.60
2022,09,26,13,43,19.60
2022,09,26,13,44,19.70
2022,09,26,13,45,19.70
2022,09,26,13,46,19.70
2022,09,26,13,47,19.70
2022,09,26,13,48,19.70
2022,09,26,13,49,19.70
2022,09,26,13,50,19.80
2022,09,26,13,51,19.80
2022,09,26,13,52,19.90
2022,09,26,13,53,19.90
2022,09,26,13,54,20.00
2022,09,26,13,55,20.00
2022,09,26,13,56,20.00
2022,09,26,13,57,20.00
2022,09,26,13,58,20.00
2022,09,26,13,59,20.10
2022,09,26,14,00,20.10
2022,09,26,14,01,20.20
2022,09,26,14,02,20.20
2022,09,26,14,03,20.30
2022,09,26,14,04,20.40
2022,09,26,14,05,20.40
2022,09,26,14,06,20.40
2022,09,26,14,07,20.40
2022,09,26,14,08,20.50
2022,09,26,14,09,20.50
2022,09,26,14,10,20.50
2022,09,26,14,11,20.50
2022,09,26,14,12,20.60
2022,09,26,14,13,20.60
2022,09,26,14,14,20.70
2022,09,26,14,15,20.80
2022,09,26,14,16,20.80
2022,09,26,14,17,20.90
2022,09,26,14,18,20.90
2022,09,26,14,19,20.90
2022,09,26,14,20,21.00
2022,09,26,14,21,21.00
2022,09,26,14,22,20.90
2022,09,26,14,23,20.90
2022,09,26,14,24,21.00
2022,09,26,14,25,21.00
2022,09,26,14,26,21.00
2022,09,26,14,27,21.00
2022,09,26,14,28,20.90
2022,09,26,14,29,20.90
2022,09,26,14,30,20.80
2022,09,26,14,31,20.80
2022,09,26,14,32,20.70
2022,09,26,14,33,20.60
2022,09,26,14,34,20.50
2022,09,26,14,35,20.50
2022,09,26,14,36,20.40
2022,09,26,14,37,20.40
2022,09,26,14,38,20.40
2022,09,26,14,39,20.40
2022,09,26,14,40,20.30
2022,09,26,14,41,20.30
2022,09,26,14,42,20.30
2022,09,26,14,43,20.20
2022,09,26,14,44,20.30
2022,09,26,14,45,20.30
2022,09,26,14,46,20.40
2022,09,26,14,47,20.40
2022,09,26,14,48,20.50
2022,09,26,14,49,20.60
2022,09,26,14,50,20.60
2022,09,26,14,51,20.60
2022,09,26,14,52,20.60
2022,09,26,14,53,20.60
2022,09,26,14,54,20.70
2022,09,26,14,55,20.70
2022,09,26,14,56,20.60
2022,09,26,14,57,20.70
2022,09,26,14,58,20.70
2022,09,26,14,59,20.70
2022,09,26,15,00,20.70
2022,09,26,15,01,20.70
2022,09,26,15,02,20.80
2022,09,26,15,03,20.80
2022,09,26,15,04,20.80
2022,09,26,15,05,20.80
2022,09,26,15,06,20.80
2022,09,26,15,07,20.80
2022,09,26,15,08,20.80
2022,09,26,15,09,20.80
2022,09,26,15,10,20.80
2022,09,26,15,11,20.80
2022,09,26,15,12,20.70
2022,09,26,15,13,20.70
2022,09,26,15,14,20.70
2022,09,26,15,15,20.70
2022,09,26,15,16,20.70
2022,09,26,15,17,20.60
2022,09,26,15,18,20.60
2022,09,26,15,19,20.60
2022,09,26,15,20,20.60
2022,09,26,15,21,20.60
2022,09,26,15,22,20.60
2022,09,26,15,23,20.70
2022,09,26,15,24,20.70
2022,09,26,15,25,20.70
2022,09,26,15,26,20.80
2022,09,26,15,27,20.80
2022,09,26,15,28,20.80
2022,09,26,15,29,20.80
2022,09,26,15,30,20.80
2022,09,26,15,31,20.80
2022,09,26,15,32,20.80
2022,09,26,15,33,20.80
2022,09,26,15,34,20.80
2022,09,26,15,35,20.80
2022,09,26,15,36,20.90
2022,09,26,15,37,20.90
2022,09,26,15,38,21.00
2022,09,26,15,39,21.10
2022,09,26,15,40,21.10
2022,09,26,15,41,21.20
2022,09,26,15,42,21.20
2022,09,26,15,43,21.20
2022,09,26,15,44,21.20
2022,09,26,15,45,21.20
2022,09,26,15,46,21.20
2022,09,26,15,47,21.20
2022,09,26,15,48,21.20
2022,09,26,15,49,21.20
2022,09,26,15,50,21.20
2022,09,26,15,51,21.20
2022,09,26,15,52,21.20
2022,09,26,15,53,21.30
2022,09,26,15,54,21.40
2022,09,26,15,55,21.40
2022,09,26,15,56,21.50
2022,09,26,15,57,21.60
2022,09,26,15,58,21.60
2022,09,26,15,59,21.60
2022,09,26,16,00,21.70
2022,09,26,16,01,21.70
2022,09,26,16,02,21.70
2022,09,26,16,03,21.70
2022,09,26,16,04,21.60
2022,09,26,16,05,21.60
2022,09,26,16,06,21.50
2022,09,26,16,07,21.40
2022,09,26,16,08,21.30
2022,09,26,16,09,21.30
2022,09,26,16,10,21.30
2022,09,26,16,11,21.30
2022,09,26,16,12,21.30
2022,09,26,16,13,21.40
2022,09,26,16,14,21.40
2022,09,26,16,15,21.50
2022,09,26,16,16,21.60
2022,09,26,16,17,21.60
2022,09,26,16,18,21.70
2022,09,26,16,19,21.70
2022,09,26,16,20,21.70
2022,09,26,16,21,21.70
2022,09,26,16,22,21.70
2022,09,26,16,23,21.80
2022,09,26,16,24,21.80
2022,09,26,16,25,21.80
2022,09,26,16,26,21.90
2022,09,26,16,27,21.90
2022,09,26,16,28,22.00
2022,09,26,16,29,22.00
2022,09,26,16,30,22.10
2022,09,26,16,31,22.10
2022,09,26,16,32,22.10
2022,09,26,16,33,22.20
2022,09,26,16,34,22.10
2022,09,26,16,35,22.10
2022,09,26,16,36,22.10
2022,09,26,16,37,22.00
2022,09,26,16,38,22.00
2022,09,26,16,39,22.00
2022,09,26,16,40,21.90
2022,09,26,16,41,21.90
2022,09,26,16,42,21.80
2022,09,26,16,43,21.80
2022,09,26,16,44,21.80
2022,09,26,16,45,21.80
2022,09,26,16,46,21.80
2022,09,26,16,47,21.80
2022,09,26,16,48,21.80
2022,09,26,16,49,21.80
2022,09,26,16,50,21.80
2022,09,26,16,51,21.80
2022,09,26,16,52,21.90
2022,09,26,16,53,21.90
2022,09,26,16,54,21.90
2022,09,26,16,55,21.90
2022,09,26,16,56,21.80
2022,09,26,16,57,21.80
2022,09,26,16,58,21.80
2022,09,26,16,59,21.80
2022,09,26,17,00,21.80
2022,09,26,17,01,21.80
2022,09,26,17,02,21.80
2022,09,26,17,03,21.80
2022,09,26,17,04,21.80
2022,09,26,17,05,21.80
2022,09,26,17,06,21.80
2022,09,26,17,07,21.80
2022,09,26,17,08,21.80
2022,09,26,17,09,21.80
2022,09,26,17,10,21.80
2022,09,26,17,11,21.70
2022,09,26,17,12,21.70
2022,09,26,17,13,21.70
2022,09,26,17,14,21.70
2022,09,26,17,15,21.70
2022,09,26,17,16,21.70
2022,09,26,17,17,21.70
2022,09,26,17,18,21.70
2022,09,26,17,19,21.70